OneWeb SL0158

operational
NORAD ID: 48054 Int'l Des: 2021-025 Owner: ONEWEBN Country: UK Constellation: oneweb
LEOCIRCULARPOLARONEWEB_TYPE

OneWeb SL0158について

説明を読み込み中...

リアルタイム位置

3D地球を読み込み中...

次回通過

高度履歴

Altitude vs Time

uPlot chart will show altitude changes over time

軌道要素

1 48054U 21025N 25258.58426544 -.00000264 00000-0 -75716-3 0 9994
2 48054 87.9041 14.7580 0001512 92.7590 267.3713 13.13473013217586
Epoch: Sep 15, 2025 • Age: 16 hours

現在のステータス

高度 1239.7 km
速度 7.23 km/s
衛星直下点 -87.91°S, 157.17°W
打ち上げ日 Mar 25, 2021
運用期間 4.4 years
タイプ internet

技術仕様

分類 Payload
質量 148.00 kg
乾燥質量 140.00 kg
総質量 148.00 kg
長さ 1.30 m
直径 1.00 m
スパン 5.00 m
形状 Trapezoid+2 pan
製造者 ONEWUS
バスタイプ ARROW
フェーズステータス In Orbit
所有者/国 ONEWEBN/UK

大規模コンステレーション

Loading constellations...